TimeEST,TemperatureF,Dew PointF,Humidity,Sea Level PressureIn,VisibilityMPH,Wind Direction,Wind SpeedMPH,Gust SpeedMPH,PrecipitationIn,Events,Conditions,WindDirDegrees,DateUTC
12:58 AM,39.2,37.9,95,30.23,10.0,West,2.3,-,N/A,,Clear,270,2013-12-17 05:58:00
1:58 AM,38.8,36.5,91,30.23,10.0,WSW,2.3,-,N/A,,Clear,250,2013-12-17 06:58:00
2:58 AM,40.3,36.5,86,30.24,10.0,Calm,Calm,-,N/A,,Clear,0,2013-12-17 07:58:00
3:58 AM,37.2,35.2,93,30.23,10.0,WSW,3.5,-,N/A,,Clear,250,2013-12-17 08:58:00
4:58 AM,37.0,35.1,93,30.23,10.0,West,3.5,-,N/A,,Clear,280,2013-12-17 09:58:00
5:58 AM,38.8,34.2,83,30.24,10.0,West,5.8,-,N/A,,Clear,260,2013-12-17 10:58:00
6:58 AM,37.9,33.6,84,30.24,10.0,WSW,3.5,-,N/A,,Clear,250,2013-12-17 11:58:00
7:58 AM,36.9,34.5,91,30.26,10.0,West,2.3,-,N/A,,Clear,260,2013-12-17 12:58:00
8:58 AM,44.6,38.5,79,30.27,10.0,West,3.5,-,N/A,,Clear,280,2013-12-17 13:58:00
9:58 AM,53.4,36.9,53,30.26,10.0,West,5.8,-,N/A,,Clear,280,2013-12-17 14:58:00
10:58 AM,58.8,34.3,40,30.24,10.0,WNW,11.5,-,N/A,,Clear,290,2013-12-17 15:58:00
11:58 AM,62.1,34.0,35,30.21,10.0,WNW,8.1,-,N/A,,Clear,300,2013-12-17 16:58:00
12:58 PM,64.9,34.3,32,30.18,10.0,Variable,4.6,-,N/A,,Clear,0,2013-12-17 17:58:00
1:58 PM,66.6,34.2,30,30.15,10.0,West,6.9,-,N/A,,Clear,270,2013-12-17 18:58:00
2:58 PM,67.3,33.4,29,30.14,10.0,WSW,10.4,17.3,N/A,,Clear,240,2013-12-17 19:58:00
3:58 PM,66.2,34.7,31,30.13,10.0,SW,10.4,-,N/A,,Clear,220,2013-12-17 20:58:00
4:58 PM,62.6,36.0,37,30.13,10.0,SW,6.9,-,N/A,,Clear,220,2013-12-17 21:58:00
5:58 PM,57.6,36.9,46,30.14,10.0,SW,4.6,-,N/A,,Clear,220,2013-12-17 22:58:00
6:58 PM,54.7,39.0,56,30.14,10.0,SSW,5.8,-,N/A,,Clear,210,2013-12-17 23:58:00
7:58 PM,53.1,39.9,61,30.15,10.0,SSW,6.9,-,N/A,,Clear,210,2013-12-18 00:58:00
8:58 PM,51.8,39.7,63,30.15,10.0,SW,6.9,-,N/A,,Clear,230,2013-12-18 01:58:00
9:58 PM,52.0,38.3,60,30.16,10.0,SW,9.2,-,N/A,,Clear,230,2013-12-18 02:58:00
10:58 PM,52.5,36.7,55,30.16,10.0,WSW,10.4,-,N/A,,Clear,250,2013-12-18 03:58:00
11:58 PM,50.0,36.9,61,30.15,10.0,WSW,8.1,-,N/A,,Clear,240,2013-12-18 04:58:00